This is the latest recevied weather packets stored in our database for station/object KE1THD. If no packets are shown the sender has not sent any weather packets the latest 1 day(s).
| Time | Temp. | Humidity | Pressure | Rain* | Wind** | Luminosity | Snow |
|---|---|---|---|---|---|---|---|
| 1778086481 | 10.56° C | 40% | 1016.3 hPa | 0 mm | - | 487 W/m² | - |
| 1778085266 | 11.11° C | 38% | 1016.2 hPa | 0 mm | - | 487 W/m² | - |
| 1778084961 | 11.11° C | 38% | 1016.2 hPa | 0 mm | - | 655 W/m² | - |
| 1778083746 | 11.11° C | 38% | 1016.2 hPa | 0 mm | - | 333 W/m² | - |
| 1778082837 | 10.56° C | 39% | 1016.3 hPa | 0 mm | - | 541 W/m² | - |
| 1778081714 | 10.56° C | 38% | 1016.3 hPa | 0 mm | - | 736 W/m² | - |
| 1778079897 | 10° C | 40% | 1016.1 hPa | 0 mm | - | 219 W/m² | - |
| 1778078383 | 9.44° C | 41% | 1016.1 hPa | 0 mm | - | 252 W/m² | - |
| 1778077778 | 8.89° C | 44% | 1016 hPa | 0 mm | - | 672 W/m² | - |
| 1778076871 | 8.89° C | 45% | 1015.9 hPa | 0 mm | - | 188 W/m² | - |
| 1778076570 | 8.33° C | 46% | 1015.9 hPa | 0 mm | - | 210 W/m² | - |
| 1778075963 | 8.33° C | 50% | 1015.9 hPa | 0 mm | - | 204 W/m² | - |
| 1778075356 | 7.78° C | 49% | 1016 hPa | 0 mm | - | 198 W/m² | - |
| 1778074143 | 7.78° C | 54% | 1016.1 hPa | 0 mm | - | 156 W/m² | - |
| 1778073538 | 7.22° C | 57% | 1015.8 hPa | 0 mm | - | 160 W/m² | - |
| 1778071722 | 6.11° C | 60% | 1015.4 hPa | 0 mm | - | 132 W/m² | - |
| 1778071418 | 6.11° C | 61% | 1015.2 hPa | 0 mm | - | 106 W/m² | - |
| 1778071116 | 6.11° C | 61% | 1015.4 hPa | 0 mm | - | 102 W/m² | - |
| 1778069603 | 5.56° C | 62% | 1014.8 hPa | 0 mm | - | 75 W/m² | - |
| 1778069300 | 5.56° C | 62% | 1014.8 hPa | 0 mm | - | 65 W/m² | - |
| 1778068695 | 5.56° C | 62% | 1014.4 hPa | 0 mm | - | 57 W/m² | - |
| 1778068394 | 5.56° C | 63% | 1014.5 hPa | 0 mm | - | 52 W/m² | - |
| 1778068091 | 5.56° C | 62% | 1014.4 hPa | 0 mm | - | 43 W/m² | - |
| 1778067487 | 5° C | 63% | 1014.1 hPa | 0 mm | - | 36 W/m² | - |
| 1778067184 | 5° C | 64% | 1013.9 hPa | 0 mm | - | 35 W/m² | - |
* Rain latest hour (hover to see other rain measurements)
** Current wind speed in m/s (hover to see current wind gust speed)